Weather Roundup
Issued by NWS Corpus Christi, TX

Home | Current Version | Previous Version | Text Only | Print | Product List | Glossary On
Versions: 1 2 3 4 5 6 7 8 9 10 11 12 13 14 15 16 17 18 19 20 21 22 23 24 25 26 27 28 29 30 31 32 33 34 35 36 37 38 39 40 41 42 43 44 45 46 47 48 49 50
000
ASUS44 KCRP 190810
HRRCRP

SOUTH TEXAS REGIONAL WEATHER ROUNDUP
NATIONAL WEATHER SERVICE CORPUS CHRISTI TX
200 AM CST MON FEB 19 2018


TXZ229>244-190900-
...CORPUS CHRISTI AREA OBSERVATIONS...

CITY           SKY/WX    TMP DP  RH WIND       PRES   REMARKS
CORPUS CHRISTI CLOUDY    71  71 100 S25G32    29.92S
NAS CORPUS CHR CLOUDY    70  70 100 SE20G30   29.92F
ROCKPORT       PTCLDY    68  67  96 SE12      29.93F FOG
KINGSVILLE ARP CLOUDY    73  72  98 SE12G18   29.91S
KINGSVILLE NAS CLOUDY    72  69  90 SE16      29.90F
ALICE          CLOUDY    72  67  84 S15G22    29.89F
$$

...VICTORIA AREA OBSERVATIONS...

CITY           SKY/WX    TMP DP  RH WIND       PRES   REMARKS
PORT LAVACA    CLOUDY    69  67  93 SE17      29.95F
VICTORIA       CLOUDY    70  67  90 S17       29.94S
BEEVILLE       CLOUDY    71  68  90 S25G32    29.90F
PLEASANTON     CLOUDY    70  66  87 S21       29.91S
SAN ANTONIO    CLOUDY    69  64  84 S13       29.92S
$$

...LAREDO AREA OBSERVATIONS...

CITY           SKY/WX    TMP DP  RH WIND       PRES   REMARKS
LAREDO         PTCLDY    70  65  84 SE17G25   29.86S
COTULLA        PTCLDY    69  65  86 SE9       29.87F
DEL RIO        CLOUDY    68  62  81 E9        29.83F
MCALLEN        CLOUDY    75  70  84 S21G30    29.92R
HEBBRONVILLE   MOCLDY    69  65  86 S15G23    29.90R
$$

...OTHER TEXAS OBSERVATIONS...

CITY           SKY/WX    TMP DP  RH WIND       PRES   REMARKS
BROWNSVILLE    CLOUDY    73  71  93 S18G26    29.95S
HOUSTON        CLOUDY    70  65  84 S14G25    29.98F
COL. STATION   CLOUDY    69  65  86 S20G25    29.94S
AUSTIN         CLOUDY    70  67  90 S16G22    29.90S
WACO           CLOUDY    67  61  81 S20G26    29.88F
FORT WORTH     CLOUDY    68  62  81 S24G32    29.84S
WICHITA FALLS  CLOUDY    63  59  87 S14       29.76S
LUBBOCK        MOCLDY    59  57  93 S18       29.76S
EL PASO        PTCLDY    59  39  47 SW21      29.85S
$$

...MARINE OBSERVATIONS...

STATION/POSITION TIME  SKY/WX   TEMP    WIND        PRES    VSBY  WAVE   SWELL
                                AIR SEA DIR/SP/G                  HT/PER HT/PER
                 (UTC)          (F)     (DEG/KT/KT) (MB)    (MI)  (FT/S) (FT/S)
PORT ARANSAS     NOT AVBL
BUOY 90 E PORT A 0750            73 71  130/ 19/ 21 1015.3F         6/ 6
BUOY 200 E PT IS 0750            73 73  140/ 16/ 19 1017.1F         5/ 6
BUOY 15 E GALVES 0650            63 62  160/ 10/ 12 1016.9          2/ 6   2/ 6
$$




USA.gov is the U.S. government's official web portal to all federal, state and local government web resources and services.